Flag for U.S.A. Weather past 2 weeks in Annapolis, Maryland, U.S.A.

Now
57 °F

Sunny.


Feels Like: 54 °F
Forecast: 51 / 69 °F
Wind: 12 mph from North

Location: Annapolis - United States Naval Academy

Current Time: May 23, 2015 at 8:57:26 AM

Latest Report: May 23, 2015 at 7:54 AM


Visibility: 10 mi

Pressure: 30.44 "Hg

Humidity: 39%

Dew point: 32 °F

Location of AnnapolisLocation

Historic Weather in Annapolis — Graph

°F

Annapolis temperature yesterday

Maximum temperature yesterday: 74 °F (at 5:54 PM)
Minimum temperature yesterday: 50 °F (at 5:54 AM)
Average temperature yesterday: 63 °F

Past Weeks' High & Low Weather Summary

 TemperatureHumidityPressure
High87 °F (May 12, 4:54 PM)94% (May 9, 5:54 AM)30.46 "Hg (May 9, 5:54 AM)
Low50 °F (May 21, 1:01 PM)28% (May 12, 8:54 PM)29.83 "Hg (May 12, 5:54 PM)
Average68 °F69%30.11 "Hg
* Reported May 8 7:03 AM — May 23 7:54 AM, Annapolis, Weather by CustomWeather, © 2015

Note: Actual official high and low records may vary slightly from our data, if they occured in-between our weather recording intervals... More about our weather records

Advertising

Annapolis weather history for previous 24 hours

 ConditionsComfort  
Time TempWeatherWind HumidityBarometerVisibility
7:54 AM
Sat, May 23
57 °FSunny.12 mph39%30.44 "Hg10 mi
6:54 AM55 °FSunny.7 mph47%30.41 "Hg10 mi
5:54 AM52 °FClear.6 mph43%30.37 "Hg10 mi
4:54 AM54 °FClear.7 mph41%30.34 "Hg10 mi
3:54 AM57 °FClear.8 mph37%30.32 "Hg10 mi
2:54 AM60 °FClear.9 mph36%30.29 "Hg10 mi
1:54 AM63 °FClear.10 mph34%30.26 "Hg10 mi
12:54 AM65 °FClear.15 mph39%30.24 "Hg10 mi
11:54 PM
Fri, May 22
66 °FClear.12 mph40%30.22 "Hg10 mi
10:54 PM67 °FClear.7 mph42%30.19 "Hg10 mi
9:54 PM68 °FClear.7 mph39%30.16 "Hg10 mi
8:54 PM69 °FSunny.5 mph36%30.12 "Hg10 mi
7:54 PM71 °FPassing clouds.6 mph34%30.11 "Hg10 mi
6:54 PM73 °FPartly sunny.12 mph29%30.08 "Hg10 mi
5:54 PM74 °FSunny.10 mph28%30.06 "Hg10 mi
4:54 PM73 °FPassing clouds.13 mph32%30.06 "Hg10 mi
3:54 PM73 °FScattered clouds.13 mph30%30.07 "Hg10 mi
2:54 PM73 °FSunny.13 mph36%30.07 "Hg10 mi
1:54 PM71 °FSunny.14 mph34%30.08 "Hg10 mi
12:54 PM69 °FSunny.10 mph38%30.09 "Hg10 mi
11:54 AM67 °FSunny.9 mph41%30.09 "Hg10 mi
10:54 AM65 °FSunny.5 mph49%30.08 "Hg10 mi
9:54 AM61 °FSunny.9 mph56%30.07 "Hg10 mi
8:54 AM57 °FSunny.12 mph64%30.06 "Hg10 mi
Weather by CustomWeather, © 2015

See weather overviewHow to use our weather pages